ネオワイズ彗星

C/2018 EN4 ( NEOWISE )

English version
Home page
Updated on May 20, 2019

---------------------------------------------------------------------

・ プロフィール

発見日 2018年3月9日
発見光度 20等
発見者 Near-Earth Object Wide-field Infrared Survey Explorer

・ 写真集

・ 軌道要素

Epoch 2018 June 11.0 TT = JDT 2458280.5
T 2018 June 7.77885 TT                                  MPCW
q   1.4479499            (2000.0)            P               Q
n   0.01245786     Peri.   35.01179     -0.64910921     +0.33062851
a  18.4292238      Node   136.16514     +0.23897011     -0.76638075
e   0.9214319      Incl.   81.56215     +0.72218455     +0.55076795
P  79.12
From 68 observations 2018 Mar. 9-Oct. 8, mean residual 0".4.

・ 光度変化

        m1 = 12.5 + 5 logΔ + 22.0 log r(t - 25)

---------------------------------------------------------------------

軌道要素はM.P.E.C. 2018-U70に掲載されたものです。
光度グラフはComet for Windowsで作成したものです。

---------------------------------------------------------------------

Copyright(C) Seiichi Yoshida (comet@aerith.net). All rights reserved.